Location: Zagreb
(45.8000°N, 16.0000°E)
Time: 09:02:13
(UTC+02:00)

X-37B - Pass Details

Date: 03 July 2022
Orbit: 328 x 343 km, 45.0° (Epoch: 12 August)

Event Time Altitude Azimuth Distance (km) Brightness Sun altitude
Rises 22:01:13 0° 268° (W) 2,088 4.9 -10.2°
Reaches altitude 10° 22:03:13 10° 267° (W) 1,255 3.7 -10.4°
Maximum altitude 22:06:01 78° 182° (S) 342 0.2 -10.7°
Enters shadow 22:08:36 12° 95° (E) 1,166 2.6 -11.0°
